Preview of NWS' New Version of Forecast
This preview is not operational and should not be used for support decisions.

Regional Weather Roundup (RWR)

Issued by National Weather Service (NWS)

                            
000
ASUS43 KDMX 221401
RWRIA 

WEATHER ROUNDUP FOR IOWA
NATIONAL WEATHER SERVICE DES MOINES IA
900 AM CDT SUN SEP 22 2019

NOTE: "FAIR" INDICATES FEW OR NO CLOUDS BELOW 12,000 FEET WITH NO
SIGNIFICANT WEATHER AND/OR OBSTRUCTIONS TO VISIBILITY.

* - THESE STATIONS ARE NOT NWS STATIONS...THUS NOT UNDER NWS
QUALITY CONTROL.  THEY ALSO DO NOT REPORT WEATHER SUCH 
AS PRECIPITATION OR FOG.  

IAZ001>003-012>014-020>022-031>034-043>046-221500-
   NORTHWEST IOWA
  
CITY           SKY/WX    TMP DP  RH WIND       PRES   REMARKS
CARROLL *      RAIN      63  63 100 NW14      29.89S                  
CHEROKEE *     RAIN      58  57  97 W8        29.96R                  
DENISON *      LGT RAIN  59  59 100 N8        29.94S                  
LE MARS *      LGT RAIN  57  57 100 CALM      29.94F                  
SIOUX CITY     PTSUNNY   58  56  93 N10       29.90F                  
SPENCER        CLOUDY    61  56  83 W8        29.94R                  
STORM LAKE *   LGT RAIN  59  57  94 NW15      29.92R                  
$$
 
IAZ055>058-069>071-079>083-090>094-221500-
   SOUTHWEST IOWA
  
CITY           SKY/WX    TMP DP  RH WIND       PRES   REMARKS
ATLANTIC *     HVY RAIN  64  64 100 SW5       29.89R                  
AUDUBON *      HVY RAIN  63  61  94 NW7       29.92R                  
CLARINDA *     HVY RAIN  64  64 100 NW9       29.92R                  
COUNCIL BLFS * HVY RAIN  59  59 100 N14G24    29.92R                  
CRESTON *      CLOUDY    63  63 100 SE8       29.89S                  
HARLAN  *      CLOUDY    59  59 100 NW14G22   29.92R FOG              
LAMONI         LGT RAIN  64  62  93 SE6       29.88F                  
RED OAK *      RAIN      64  64 100 S7        29.92R                  
SHENANDOAH *   HVY RAIN  64  64 100 NW6       29.90R                  
$$
 
IAZ047>049-059>061-072>074-084-221500-
   CENTRAL IOWA
  
CITY           SKY/WX    TMP DP  RH WIND       PRES   REMARKS
AMES           LGT RAIN  66  65  96 SW7       29.90R                  
ANKENY *       MOSUNNY   66  64  94 SW7       29.90R                  
BOONE *        CLOUDY    66  64  94 SW3       29.89R                  
CHARITON *     PTSUNNY   64  64 100 SE9       29.87F                  
DES MOINES     LGT RAIN  64  63  96 S9        29.87R FOG              
GRINNELL*      DRIZZLE   64  64  99 SW6       29.90R                  
KNOXVILLE *    PTSUNNY   64  64 100 S7        29.88S FOG              
MARSHALLTOWN   PTSUNNY   65  65 100 W3        29.88S                  
NEWTON *       CLOUDY    64  64 100 W6        29.89R                  
PELLA *        LGT RAIN  64  63  96 S6        29.89F                  
PERRY *        LGT RAIN  65  64  94 SW5       29.89R                  
$$
 
IAZ004>006-015-016-023>025-035-036-221500-
   NORTH CENTRAL IOWA
  
CITY           SKY/WX    TMP DP  RH WIND       PRES   REMARKS
ALGONA *       CLOUDY    64  63  94 NW5       29.91R                  
ESTHERVILLE    PTSUNNY   59  56  89 NW9       29.93R                  
FORT DODGE *   RAIN      61  61 100 NW5       29.91R FOG              
MASON CITY     PTSUNNY   66  61  84 NW9       29.90R                  
FOREST CITY *  CLOUDY    64  61  88 CALM      29.91R                  
IOWA FALLS *     N/A     67  63  87 NW3       29.89S                  
$$

IAZ007>011-017>019-026>030-037>042-050>054-066-221500-
   NORTHEAST IOWA
  
CITY           SKY/WX    TMP DP  RH WIND       PRES   REMARKS
CEDAR RAPIDS   LGT RAIN  65  65 100 S6        29.88R                  
CHARLES CITY * FAIR      66  64  94 NW6       29.87F                  
CLINTON *      LGT RAIN  69  69 100 SW14      29.88R                  
DECORAH *      PTSUNNY   66  66 100 NW5       29.85R                  
DUBUQUE        LGT RAIN  66  66 100 CALM      29.86S                  
MONTICELLO *   LGT RAIN  66  66 100 CALM      29.86R                  
OELWEIN *      CLOUDY    66  66 100 SW7       29.89R                  
WATERLOO       CLOUDY    69  65  86 SW5       29.87S                  
$$
 
IAZ064-065-067-068-078-221500-
   EAST CENTRAL IOWA
  
CITY           SKY/WX    TMP DP  RH WIND       PRES   REMARKS
DAVENPORT      LGT RAIN  69  66  90 SW5       29.90R                  
IOWA CITY      LGT RAIN  70  67  90 S6        29.90R                  
MUSCATINE *    LGT RAIN  68  68 100 S8        29.90R                  
QUAD CITIES    RAIN      69  67  93 SW7       29.88S FOG              
$$
 
IAZ062-063-075>077-085>089-095>099-221500-
   SOUTHEAST IOWA
  
CITY           SKY/WX    TMP DP  RH WIND       PRES   REMARKS
BURLINGTON     RAIN      67  65  93 SW5       29.92S FOG              
FAIRFIELD *    CLOUDY    64  64 100 S10       29.91R FOG              
FORT MADISON * LGT RAIN  66  66 100 CALM      29.92F                  
KEOKUK *       PTSUNNY   66  66 100 CALM      29.91F                  
OSKALOOSA *    RAIN      64  63  96 S5        29.89F                  
OTTUMWA        RAIN      65  64  97 S8        29.89F                  
WASHINGTON *   LGT RAIN  66  66 100 SW7       29.89S                  
$$

ABBREVIATIONS USED IN REMARKS
   TC - TEMPERATURES IN CELSIUS
  WCI - WIND CHILL INDEX
   HX - HEAT INDEX
  VSB - VISIBILITY  
$$